Nashville, TN

8:45 AM CDT on September 15, 2019 (GMT -0500)
Nashville International

Weather History for KBNA - May, 2019

Change the Weather History Date:

Friday, May 10, 2019

  Actual Average Record
Temperature  
Mean Temperature 67 °F 66 °F  
Max Temperature 75 °F 77 °F 92 °F (2015)
Min Temperature 58 °F 55 °F 37 °F (1966)
Degree Days  
Heating Degree Days 0    
Month to date heating degree days 3  
Since 1 July heating degree days 3196  
Cooling Degree Days 2    
Month to date cooling degree days 52  
Year to date cooling degree days 111  
Growing Degree Days 17 (Base 50)    
Moisture  
Dew Point 60 °F    
Average Humidity 79    
Maximum Humidity 93    
Minimum Humidity 64    
Precipitation  
Precipitation 0.02 in 0.19 in 1.64 in (1933)
Month to date precipitation 1.11 1.88  
Year to date precipitation 28.99 17.68  
Sea Level Pressure  
Sea Level Pressure 30.05 in    
Wind  
Wind Speed 6 mph (NNW)    
Max Wind Speed 14 mph    
Max Gust Speed 23 mph    
Visibility 10 miles    
Events Rain    
T = Trace of Precipitation, MM = Missing Value Source: NWS Daily Summary

Daily Weather History Graph

Daily Weather History Graph

Search for Another Location

Airport or City:

Astronomy

May. 10, 2019 Rise Set
Actual Time 5:45 AM CDT 7:41 PM CDT
Civil Twilight 5:16 AM CDT 8:09 PM CDT
Nautical Twilight 4:42 AM CDT 8:44 PM CDT
Astronomical Twilight 4:06 AM CDT 9:20 PM CDT
Moon 10:46 AM CDT (5/10) 12:32 AM CDT (5/10)
Length of Visible Light 14h 52m
Length of Day
13h 56m
Waxing Crescent, 35% of the Moon is Illuminated
May 10
Waxing Crescent
May 11
First Quarter
May 18
Full
May 26
Last Quarter
Jun 3
New

Hourly Weather History & Observations

Time (CDT) Temp. Dew Point Humidity Pressure Visibility Wind Dir Wind Speed Gust Speed Precip Events Conditions
12:53 AM 64.0 °F 60.1 °F 87% 29.99 in 10.0 mi Calm Calm - N/A   Scattered Clouds
1:37 AM 64.0 °F 61.0 °F 90% 30.00 in 10.0 mi Calm Calm - N/A   Mostly Cloudy
1:53 AM 63.0 °F 60.1 °F 90% 29.99 in 10.0 mi Calm Calm - N/A   Overcast
2:53 AM 64.9 °F 61.0 °F 87% 29.99 in 10.0 mi Calm Calm - N/A   Overcast
3:53 AM 64.9 °F 61.0 °F 87% 30.00 in 10.0 mi WSW 3.5 mph - N/A   Overcast
4:53 AM 64.9 °F 61.0 °F 87% 30.01 in 7.0 mi Calm Calm - N/A   Overcast
5:02 AM 64.9 °F 62.1 °F 90% 30.02 in 10.0 mi Calm Calm - N/A   Overcast
5:15 AM 64.9 °F 62.1 °F 90% 30.02 in 7.0 mi Calm Calm - N/A   Overcast
5:24 AM 64.9 °F 61.0 °F 87% 30.02 in 10.0 mi South 3.5 mph - N/A   Overcast
5:53 AM 64.0 °F 61.0 °F 90% 30.01 in 10.0 mi SSE 4.6 mph - N/A   Mostly Cloudy
6:53 AM 64.9 °F 62.1 °F 90% 30.04 in 10.0 mi SSE 3.5 mph - N/A   Overcast
7:53 AM 66.0 °F 62.1 °F 87% 30.05 in 10.0 mi South 4.6 mph - N/A   Overcast
8:18 AM 68.0 °F 62.1 °F 81% 30.07 in 10.0 mi SW 3.5 mph - N/A   Overcast
8:53 AM 68.0 °F 62.1 °F 81% 30.07 in 10.0 mi SSW 3.5 mph - N/A   Overcast
9:16 AM 68.0 °F 62.1 °F 81% 30.08 in 10.0 mi Variable 3.5 mph - N/A   Overcast
9:53 AM 69.1 °F 62.1 °F 78% 30.06 in 10.0 mi Calm Calm - N/A   Overcast
10:19 AM 69.1 °F 61.0 °F 75% 30.07 in 10.0 mi SW 3.5 mph - N/A   Overcast
10:53 AM 71.1 °F 61.0 °F 70% 30.07 in 10.0 mi WNW 3.5 mph - N/A   Overcast
11:53 AM 71.1 °F 62.1 °F 73% 30.08 in 10.0 mi NW 6.9 mph - N/A   Overcast
12:24 PM 72.0 °F 62.1 °F 71% 30.10 in 10.0 mi NW 8.1 mph - N/A   Overcast
12:53 PM 73.0 °F 62.1 °F 68% 30.08 in 10.0 mi NW 9.2 mph - N/A   Mostly Cloudy
1:53 PM 75.0 °F 62.1 °F 64% 30.07 in 10.0 mi NW 5.8 mph - N/A   Overcast
2:53 PM 72.0 °F 61.0 °F 68% 30.07 in 10.0 mi NNE 6.9 mph - N/A   Overcast
3:53 PM 73.0 °F 62.1 °F 68% 30.06 in 10.0 mi North 9.2 mph - N/A   Overcast
4:53 PM 71.1 °F 61.0 °F 70% 30.04 in 10.0 mi NNE 9.2 mph - N/A   Overcast
5:53 PM 68.0 °F 60.1 °F 76% 30.04 in 9.0 mi North 10.4 mph 18.4 mph N/A   Overcast
6:53 PM 66.0 °F 57.9 °F 75% 30.06 in 8.0 mi NNW 9.2 mph - N/A   Overcast
7:12 PM 66.0 °F 57.9 °F 75% 30.08 in 8.0 mi North 8.1 mph - N/A   Overcast
7:53 PM 64.0 °F 55.9 °F 75% 30.07 in 10.0 mi North 9.2 mph - N/A   Overcast
8:21 PM 63.0 °F 55.0 °F 75% 30.07 in 10.0 mi North 10.4 mph - N/A   Overcast
8:53 PM 62.1 °F 54.0 °F 75% 30.06 in 10.0 mi North 12.7 mph - 0.00 in Rain Light Rain
9:53 PM 60.1 °F 54.0 °F 80% 30.08 in 10.0 mi North 9.2 mph - 0.01 in Rain Light Rain
10:12 PM 60.1 °F 54.0 °F 80% 30.09 in 10.0 mi North 6.9 mph - 0.00 in Rain Light Rain
10:25 PM 60.1 °F 54.0 °F 80% 30.09 in 10.0 mi North 6.9 mph - 0.00 in   Overcast
10:53 PM 59.0 °F 54.0 °F 83% 30.07 in 7.0 mi North 6.9 mph - 0.00 in Rain Light Rain
11:53 PM 59.0 °F 55.0 °F 87% 30.05 in 5.0 mi North 6.9 mph - 0.00 in   Overcast